Location: Unspecified
(52.4292°N, 19.3359°E)
Time: 00:55:04
(UTC+02:00)

Altair - Pass Details

Date: 19 May 2024
Orbit: 1502 x 1682 km, 47.2° (Epoch: 20 June)

Event Time Altitude Azimuth Distance (km) Brightness Sun altitude
Rises 19:43:50 0° 284° (WNW) 4,937 12.3 6.4°
Reaches altitude 10° 19:49:54 10° 257° (WSW) 3,929 10.6 5.6°
Maximum altitude 19:53:07 12° 238° (WSW) 3,755 10.0 5.1°
Drops below altitude 10° 19:56:20 10° 218° (SW) 3,894 9.8 4.7°
Sets 20:02:19 0° 191° (S) 4,837 9.9 3.9°
